Regional Weather Roundup
Issued by NWS

Home | Current Version | Previous Version | Text Only | Print | Product List | Glossary On
Versions: 1 2 3 4 5 6 7 8 9 10 11 12 13 14 15 16 17 18 19 20 21 22 23 24 25 26 27 28 29 30 31 32 33 34 35 36 37 38 39 40 41 42 43 44 45 46 47 48 49 50
000
ASUS43 KDMX 022207
RWRIA

WEATHER ROUNDUP FOR IOWA
NATIONAL WEATHER SERVICE DES MOINES IA
500 PM CDT SUN AUG 02 2015

NOTE: "FAIR" INDICATES FEW OR NO CLOUDS BELOW 12,000 FEET WITH NO
SIGNIFICANT WEATHER AND/OR OBSTRUCTIONS TO VISIBILITY.

* - THESE STATIONS ARE NOT NWS STATIONS...THUS NOT UNDER NWS
QUALITY CONTROL.  THEY ALSO DO NOT REPORT WEATHER SUCH
AS PRECIPITATION OR FOG.

IAZ001>003-012>014-020>022-031>034-043>046-022300-
   NORTHWEST IOWA

CITY           SKY/WX    TMP DP  RH WIND       PRES   REMARKS
CARROLL *      SUNNY     86  75  70 NW12      29.80S HX  95
CHEROKEE *     SUNNY     84  70  61 N5        29.82S HX  88
DENISON *      SUNNY     86  73  66 NW7       29.80R HX  93
LE MARS *      SUNNY     86  70  58 N8        29.83S HX  90
ORANGE CITY *  SUNNY     84  68  58 N8        29.83F HX  87
SHELDON *      SUNNY     82  66  57 NW9       29.82S HX  85
SPENCER        SUNNY     88  60  38 NW16      29.81S HX  87
STORM LAKE *   SUNNY     84  72  65 NW10      29.83F HX  89
$$

IAZ055>058-069>071-079>083-090>094-022300-
   SOUTHWEST IOWA

CITY           SKY/WX    TMP DP  RH WIND       PRES   REMARKS
ATLANTIC *     MOSUNNY   90  77  66 SW12G17   29.79S HX 102
AUDUBON *      SUNNY     88  77  70 NW10G17   29.82S HX 100
CLARINDA *     SUNNY     91  77  62 SW13G20   29.82F HX 105
COUNCIL BLFS * SUNNY     93  73  52 W13G23    29.80S HX 102
CRESTON *      SUNNY     88  77  70 SW14G22   29.81F HX 100
HARLAN  *      MOSUNNY   88  81  79 N9G17     29.84S HX 105
LAMONI         SUNNY     89  74  60 SW14G24   29.82F HX  98
RED OAK *      SUNNY     90  77  66 SW14G21   29.79F HX 102
SHENANDOAH *   SUNNY     90  77  66 SW13      29.81F HX 102
$$

IAZ047>049-059>061-072>074-084-022300-
   CENTRAL IOWA

CITY           SKY/WX    TMP DP  RH WIND       PRES   REMARKS
AMES           MOSUNNY   88  75  65 W14       29.77R HX  97
ANKENY *       SUNNY     91  75  59 W10G21    29.76R HX 102
CHARITON *     SUNNY     90  75  62 SW15G22   29.78F HX 100
DES MOINES     MOSUNNY   93  73  52 W16       29.75S THUNDER HX 102
GRINNELL*      SUNNY     90  75  62 SW10G17   29.77R HX 100
KNOXVILLE *    SUNNY     90  73  58 SW12G21   29.75F HX  98
MARSHALLTOWN   MOSUNNY   88  76  67 W9G18     29.75R HX  99
PELLA *        SUNNY     91  79  66 W10G16    29.77S HX 107
PERRY *          N/A     88  77  70 NW10      29.77F HX 100
$$

IAZ004>006-015-016-023>025-035-036-022300-
   NORTH CENTRAL IOWA

CITY           SKY/WX    TMP DP  RH WIND       PRES   REMARKS
ALGONA *       SUNNY     86  64  48 NW9       29.79S HX  87
CLARION *      SUNNY     86  70  58 NW15      29.78S HX  90
ESTHERVILLE    SUNNY     84  64  50 N13       29.80S HX  85
FORT DODGE *   SUNNY     88  70  55 NW7       29.80R HX  92
MASON CITY     SUNNY     87  69  54 NW15      29.77S HX  91
FOREST CITY *  SUNNY     82  64  54 W12       29.77S HX  84
IOWA FALLS *     N/A     88  73  62 W12G18    29.78S HX  96
$$

IAZ007>011-017>019-026>030-037>042-050>054-066-022300-
   NORTHEAST IOWA

CITY           SKY/WX    TMP DP  RH WIND       PRES   REMARKS
CEDAR RAPIDS   MOSUNNY   88  77  69 W15       29.72S HX 100
CHARLES CITY * SUNNY     84  68  58 W13G20    29.75R HX  87
CLINTON *      SUNNY     90  75  62 SW17G25   29.74S HX 100
DECORAH *      MOSUNNY   86  64  48 W10G20    29.70R HX  87
DUBUQUE        SUNNY     88  75  65 W15G26    29.70R HX  97
MONTICELLO *   SUNNY     90  75  62 W13G26    29.71R HX 100
OELWEIN *      SUNNY     88  73  62 W16G23    29.74R HX  96
WATERLOO       MOSUNNY   89  73  59 W14G21    29.72S HX  97
$$

IAZ064-065-067-068-078-022300-
   EAST CENTRAL IOWA

CITY           SKY/WX    TMP DP  RH WIND       PRES   REMARKS
DAVENPORT      SUNNY     89  73  59 SW15G26   29.74F HX  97
IOWA CITY      SUNNY     90  74  59 SW13      29.74F HX  99
MT. PLEASANT * MOSUNNY   91  70  49 SW16      29.77F HX  97
MUSCATINE *    SUNNY     91  73  55 SW17G25   29.74S HX 100
QUAD CITIES    MOSUNNY   91  72  53 SW14G28   29.73F HX  98
$$

IAZ062-063-075>077-085>089-095>099-022300-
   SOUTHEAST IOWA

CITY           SKY/WX    TMP DP  RH WIND       PRES   REMARKS
BURLINGTON     MOSUNNY   89  74  60 SW13G23   29.78F HX  98
FAIRFIELD *    SUNNY     90  73  58 SW13G20   29.77F HX  98
FORT MADISON * SUNNY     90  73  58 SW13G20   29.80S HX  98
KEOKUK *       MOSUNNY   90  75  62 SW15      29.79S HX 100
OSKALOOSA *      N/A     88  75  66 SW10G17   29.77F HX  97
CENTERVILLE *  SUNNY     88  75  66 SW12      29.82F HX  97
OTTUMWA        SUNNY     88  75  65 SW13G23   29.75F HX  97
WASHINGTON *   SUNNY     90  77  66 SW13      29.77S HX 102
$$

ABBREVIATIONS USED IN REMARKS
   TC - TEMPERATURES IN CELSIUS
  WCI - WIND CHILL INDEX
   HX - HEAT INDEX
  VSB - VISIBILITY
$$



USA.gov is the U.S. government's official web portal to all federal, state and local government web resources and services.